Theta_e
304 304 304 304 304 304 304 304 304 303 303 300 298 301 295 295 292 303 306 307 303 295 288 291 289 286 290 294 292 294 292 290 292 290 292 289 292 290 288 288 288 291 290 291 291 292 289 290 288 291 292 294 296 297 298 299 298 297 296 298 299 301 293 289 290 294 297 298 300 300 301 300 297 297 298 297 294 294 294 293 295 291 293 290 291 287 294
304 304 304 304 304 304 304 303 303 303 303 302 300 296 294 295 295 297 305 307 302 292 284 284 286 288 291 291 290 294 292 291 290 289 291 288 288 287 289 291 293 291 295 293 290 293 286 291 291 290 294 293 299 299 298 299 296 296 296 294 300 290 295 292 287 287 289 292 295 295 298 298 295 294 296 298 298 297 297 298 300 291 293 293 290 285 292
303 304 303 303 303 303 303 303 303 303 303 303 300 294 296 295 299 298 300 303 300 288 291 288 287 288 288 289 287 289 290 293 292 291 289 293 291 290 290 292 294 293 296 294 294 294 291 289 294 294 294 294 299 299 299 299 297 298 301 307 301 294 293 291 285 282 280 280 282 284 287 291 296 297 296 297 297 296 295 290 293 288 293 294 290 290 301
303 303 303 303 303 303 303 303 303 303 303 303 301 298 295 292 285 292 295 300 298 295 297 293 290 287 287 285 288 290 288 292 294 294 292 294 294 294 293 294 296 293 294 292 291 292 294 292 291 292 292 294 297 298 299 298 298 301 310 305 301 295 297 295 292 289 287 289 292 296 296 295 292 293 295 295 297 298 298 297 292 289 293 291 295 297 299
303 303 303 303 303 303 303 303 303 303 303 303 301 299 296 295 287 286 286 293 295 293 294 292 293 287 291 285 290 287 289 291 292 295 289 295 293 293 294 293 292 293 292 291 291 292 292 294 293 293 293 296 296 299 299 298 300 307 302 305 299 296 292 294 295 294 294 295 295 297 296 293 294 294 294 296 296 297 297 292 291 297 293 288 297 302 302
301 301 301 302 302 302 303 302 303 302 303 304 303 294 296 287 291 291 293 286 285 287 289 293 292 293 293 289 292 289 288 289 287 293 295 295 295 290 293 296 296 295 291 292 288 291 291 292 290 294 295 294 296 294 297 296 301 303 299 302 299 295 290 295 295 294 296 296 296 297 296 295 295 295 295 295 296 296 295 298 297 298 291 290 298 301 300
300 300 301 301 302 302 302 302 302 303 302 303 301 292 295 294 293 292 296 287 290 290 291 293 292 291 292 290 291 289 289 288 291 290 289 291 290 294 285 290 294 294 295 293 290 293 288 287 294 293 293 294 293 292 293 296 299 298 298 299 303 296 291 296 296 294 295 296 296 296 295 295 295 295 296 296 296 296 296 298 298 297 298 299 299 301 301
299 300 301 301 301 302 302 302 302 302 302 303 298 295 290 287 286 287 292 291 289 291 292 292 292 289 293 287 290 290 290 288 291 294 291 286 289 293 287 292 295 295 294 294 293 295 297 294 292 298 299 294 294 292 293 293 297 298 297 297 302 295 290 295 296 292 293 296 296 296 296 295 294 295 296 296 297 296 296 298 300 301 299 299 299 301 300
299 299 300 301 301 302 301 302 302 302 302 298 294 294 296 294 296 294 287 284 288 291 292 291 291 289 291 290 291 291 292 290 293 292 296 292 290 292 291 295 295 296 295 296 296 300 297 297 297 301 299 291 295 293 293 297 293 295 295 298 299 297 292 297 295 289 290 294 294 295 296 296 294 294 295 295 295 295 296 294 299 298 296 298 299 297 297
299 299 299 301 301 301 302 302 302 301 302 297 295 291 297 296 298 297 291 284 290 287 291 292 291 287 293 292 292 291 292 294 295 290 296 297 297 297 296 296 296 294 291 292 296 299 300 300 301 302 303 303 300 298 298 298 296 294 295 299 295 295 293 290 291 288 288 294 295 294 295 294 290 291 295 296 298 298 298 298 299 300 302 297 292 295 306
299 299 299 300 301 301 302 301 301 302 301 295 293 293 295 292 290 292 292 284 287 289 289 289 289 292 293 294 293 294 294 294 295 290 290 297 298 300 299 298 296 294 295 297 303 304 303 304 304 305 304 302 300 298 299 299 299 298 297 296 296 296 295 292 295 287 288 293 295 295 290 283 285 299 302 300 298 297 296 297 299 302 302 299 301 304 311
299 299 299 300 300 301 301 301 301 301 301 300 300 295 298 298 295 293 288 283 284 290 289 287 289 291 292 293 294 293 293 294 294 297 293 295 298 301 301 299 298 291 300 304 303 304 307 308 305 304 304 301 299 299 299 297 297 299 299 296 295 295 294 292 294 289 288 292 292 287 282 284 302 304 307 304 301 300 298 299 299 300 301 302 302 305 310
298 299 299 299 299 300 301 301 301 301 302 301 300 294 299 300 294 290 289 285 283 287 285 288 291 292 293 293 293 294 295 297 298 298 298 297 297 300 302 300 299 300 304 303 304 304 300 298 297 299 299 299 299 300 298 297 296 298 299 298 296 292 292 292 291 291 291 289 287 280 283 298 302 306 306 308 304 304 301 298 300 301 301 301 301 303 309
298 299 299 299 299 299 300 301 301 301 301 302 298 298 301 299 293 290 289 285 284 287 289 288 291 291 291 292 293 294 296 296 298 300 297 300 298 299 302 303 304 306 306 306 303 302 296 296 290 292 293 296 296 293 296 298 298 296 297 297 299 298 296 294 289 293 286 287 287 286 296 296 300 301 303 303 300 299 297 291 296 303 303 302 301 302 311
298 298 298 299 299 300 300 300 301 301 301 302 301 301 302 301 297 293 292 288 283 286 288 284 288 289 291 292 293 292 293 294 295 295 299 302 300 302 304 305 308 307 308 302 300 300 295 293 288 288 287 288 284 286 295 292 296 299 299 299 299 299 293 295 290 287 291 288 286 286 286 283 291 300 305 308 307 307 307 299 296 304 304 304 303 303 311
298 298 298 298 299 299 299 300 300 301 301 301 300 299 300 304 301 298 294 288 286 281 289 291 291 290 289 291 293 292 291 291 293 296 295 298 301 304 306 308 308 308 306 301 301 296 292 289 286 286 284 286 291 289 287 294 291 296 299 299 299 299 299 296 291 289 289 287 285 285 283 286 299 300 306 307 308 307 308 298 292 302 304 304 304 302 312
298 298 298 298 298 299 299 300 300 300 301 301 298 298 298 304 301 297 293 290 287 284 291 293 293 293 291 291 294 293 295 291 293 290 291 295 298 300 305 307 310 306 304 301 300 295 291 289 293 291 290 293 289 287 292 291 289 291 296 298 297 295 293 291 289 288 289 288 286 285 288 290 299 305 307 307 308 308 301 287 288 303 305 306 305 304 312
298 298 298 298 298 298 299 299 300 300 300 301 299 298 298 304 305 301 296 291 286 287 293 296 293 290 289 291 290 295 297 297 296 297 294 297 298 298 300 303 302 305 306 298 297 291 290 289 287 287 287 295 296 294 285 291 288 288 289 291 291 291 291 292 288 289 289 287 288 289 291 298 306 305 308 307 312 305 290 285 293 307 306 306 308 306 313
297 297 298 298 298 298 299 299 299 300 300 301 300 299 300 303 303 304 297 294 291 286 294 298 298 294 296 298 295 296 297 296 296 292 292 292 296 300 303 302 304 294 300 294 296 291 290 289 295 293 289 291 296 288 295 290 289 294 293 289 290 290 290 290 291 288 288 289 287 288 291 301 306 307 308 310 304 290 288 304 310 313 312 308 307 307 315
297 297 297 298 298 298 299 299 299 300 300 300 300 296 299 303 304 304 298 292 293 290 293 295 297 295 299 296 294 294 296 297 297 294 293 290 300 301 298 293 301 301 297 300 290 296 290 288 292 294 290 290 294 298 292 293 297 294 293 294 290 291 287 287 287 289 291 289 287 286 283 295 308 306 305 308 295 296 306 311 313 314 315 310 306 308 317
297 297 297 298 298 298 299 299 299 299 300 300 299 296 296 304 305 304 305 300 292 288 291 301 302 300 301 299 300 299 298 295 296 295 297 297 301 299 289 289 296 297 292 294 289 290 291 289 292 290 293 293 296 295 288 290 293 299 297 294 294 297 289 289 290 294 287 286 285 286 295 303 310 305 296 304 306 311 313 312 309 313 315 314 310 309 316
298 297 297 298 298 298 298 299 299 299 300 300 299 298 295 301 304 304 304 303 295 291 294 299 301 299 301 302 302 302 301 301 303 303 298 296 301 299 298 300 300 300 300 302 298 293 298 297 298 293 290 292 296 291 294 288 287 294 299 299 288 298 293 297 290 297 291 290 295 301 306 307 309 311 310 310 312 314 314 313 312 312 312 316 314 314 316
298 297 297 298 298 298 298 298 299 299 300 300 299 297 294 298 301 305 303 298 300 300 301 300 301 302 303 304 306 306 305 306 306 305 304 298 295 300 300 300 300 305 305 305 299 297 297 297 291 297 295 296 292 292 294 294 289 294 292 299 298 305 304 306 300 298 304 306 307 308 307 308 309 313 315 312 312 314 315 314 311 314 315 316 315 316 315
298 298 297 297 298 298 298 298 299 299 299 300 299 297 296 299 300 301 301 300 297 293 297 302 299 297 301 301 305 308 306 306 306 307 309 306 295 296 304 305 305 304 302 305 308 302 300 298 299 299 291 296 299 292 288 288 290 297 297 293 301 303 305 302 296 301 296 291 303 304 307 310 310 312 314 315 315 314 315 314 314 314 316 316 317 317 317
298 298 297 297 298 298 298 298 299 299 299 299 299 300 300 299 303 303 298 291 292 291 287 292 296 303 306 307 307 306 307 308 309 308 307 307 304 299 298 304 306 302 302 305 308 305 300 295 299 297 290 300 300 291 298 292 292 300 292 296 297 298 306 299 299 298 294 296 302 306 309 308 310 310 309 310 311 313 315 316 317 316 316 317 317 317 317
298 297 297 297 297 298 298 298 299 299 299 299 299 297 297 298 302 304 302 300 299 296 288 289 297 307 308 306 304 305 308 309 308 308 308 308 308 307 305 306 306 309 308 307 307 301 298 296 297 296 294 294 304 295 294 298 298 302 297 297 302 303 303 291 301 297 300 304 304 305 307 307 308 311 314 313 314 313 314 315 315 316 315 315 316 316 315
298 297 297 297 297 298 298 298 299 299 299 299 298 299 299 301 304 302 300 300 295 291 294 291 297 302 304 301 305 309 307 307 308 308 308 309 309 309 308 306 305 305 306 305 306 301 300 297 296 295 300 297 302 301 301 298 301 293 295 299 304 302 296 302 298 292 291 295 300 305 296 294 303 308 311 312 314 314 313 314 313 313 313 314 313 314 316
298 297 297 297 297 298 298 298 298 299 299 299 299 300 302 302 304 306 307 305 299 291 291 291 293 298 303 301 306 307 306 307 308 308 307 307 308 308 307 306 306 304 305 303 298 298 297 296 296 297 296 304 300 296 303 302 302 298 299 299 302 300 301 302 295 294 293 302 306 309 307 306 309 311 312 314 314 313 312 311 311 312 314 314 315 313 313
298 297 297 297 297 298 298 298 298 299 299 299 299 300 302 305 306 308 309 309 306 299 295 295 298 297 293 300 306 304 306 307 307 306 307 307 308 308 307 308 306 306 306 303 299 298 297 297 296 299 299 305 301 296 300 292 293 291 297 303 305 305 307 305 303 304 306 308 308 309 308 306 309 311 312 312 314 314 312 312 312 313 313 314 314 314 313
297 297 297 297 298 298 298 298 299 299 299 299 298 299 298 302 308 310 309 309 306 301 293 290 287 292 304 304 303 303 303 305 306 307 306 307 308 308 309 308 308 308 306 300 299 295 297 297 296 305 308 310 300 297 293 295 293 296 302 304 306 307 307 307 308 306 304 309 310 311 310 310 312 312 312 313 314 314 312 311 312 313 313 314 314 313 314
297 297 297 297 298 298 298 298 299 299 299 298 297 292 294 292 301 307 305 308 307 301 295 293 290 296 295 304 306 302 302 304 305 306 307 308 308 308 309 309 308 307 299 299 298 297 297 296 296 300 305 305 299 296 295 295 289 294 301 304 304 305 306 306 308 309 309 309 310 311 311 310 311 311 310 311 311 313 312 313 312 311 314 313 314 314 314
297 297 297 298 298 298 298 299 299 299 299 297 294 295 300 301 304 305 304 304 306 300 293 290 290 292 293 298 303 306 304 303 303 304 305 307 304 305 306 304 304 307 300 297 297 296 297 297 294 300 301 305 300 297 300 295 292 294 300 303 305 306 307 307 307 308 310 310 309 307 307 308 311 308 306 311 311 312 312 312 313 314 311 312 313 314 314
297 297 298 298 298 298 299 299 299 299 298 300 302 302 301 301 302 302 303 304 303 298 300 293 289 292 290 296 304 303 303 303 302 303 301 306 303 303 298 304 304 304 306 298 295 294 300 297 296 296 303 307 296 296 296 293 294 300 302 303 304 305 306 307 308 309 308 309 309 304 301 305 307 310 311 311 311 311 311 311 312 312 312 311 311 312 312
297 298 298 298 298 298 299 299 299 299 300 298 296 300 306 304 304 303 306 307 303 302 299 294 290 291 292 303 297 301 303 298 299 301 295 302 304 301 299 302 303 295 300 296 297 297 299 295 296 295 301 296 299 295 291 297 301 301 302 302 304 305 306 305 306 306 306 307 309 309 309 309 310 310 310 310 310 311 311 311 311 310 310 310 310 310 310
297 297 298 298 299 299 299 299 299 299 298 301 301 307 304 302 304 305 306 304 297 294 295 294 294 291 292 293 291 297 302 300 297 298 294 297 305 300 302 296 297 292 296 305 296 295 293 296 300 294 292 301 294 292 293 299 301 302 302 302 303 304 304 303 303 305 306 307 307 308 308 308 309 307 307 308 309 310 309 309 310 309 307 308 309 308 309
297 298 298 299 299 300 300 301 301 301 301 302 306 304 303 306 302 309 309 308 303 297 294 293 295 293 293 288 289 294 303 299 302 301 298 296 298 300 299 296 291 294 301 296 292 298 292 300 296 291 297 293 291 295 298 301 301 302 302 301 304 304 303 303 303 304 305 307 307 307 307 307 308 306 307 307 307 308 308 308 308 308 307 307 307 308 308
298 298 299 299 300 301 300 300 305 305 305 305 303 303 302 304 310 309 307 304 306 306 298 294 293 294 296 293 295 295 299 291 298 296 297 293 291 294 294 292 290 292 292 293 292 292 295 303 295 290 291 291 293 300 301 302 303 303 303 303 304 304 304 304 305 305 305 305 305 306 304 305 305 305 305 305 306 307 307 306 307 306 305 305 305 305 305
298 299 298 299 300 295 295 298 306 307 304 302 301 303 305 303 298 298 298 297 302 302 297 300 293 298 301 297 292 300 297 294 301 293 292 294 292 291 292 291 291 292 286 289 292 300 296 293 291 291 292 300 301 301 302 303 304 305 305 304 305 305 305 306 305 304 302 301 301 302 303 303 303 303 304 303 304 305 306 307 307 307 307 305 305 305 304
298 299 301 302 298 294 296 303 308 304 306 306 306 299 297 299 297 293 294 298 297 295 299 298 295 299 298 296 297 303 297 292 292 296 290 295 291 288 292 288 290 291 288 288 292 300 290 292 291 291 293 298 298 299 303 304 304 305 305 305 306 306 306 305 305 304 302 301 301 302 302 301 302 302 303 303 304 304 305 306 306 306 306 305 305 304 304
300 296 293 294 294 297 302 307 305 304 305 299 301 297 292 297 293 290 296 292 293 294 298 294 300 299 300 296 294 295 303 296 291 290 292 292 297 289 290 291 291 289 285 286 289 298 289 287 289 290 289 295 298 302 302 303 303 304 305 305 306 306 306 305 304 306 304 303 304 304 305 305 305 304 303 303 302 302 303 304 305 305 305 304 303 303 303
295 294 294 292 296 298 300 303 305 304 299 294 294 293 292 290 294 294 293 290 290 292 299 298 299 297 299 300 299 294 302 304 302 300 294 290 295 297 291 286 291 287 286 285 291 292 291 289 288 289 290 296 299 301 302 302 303 303 305 306 305 305 304 304 304 304 304 304 303 303 304 304 304 304 304 303 303 302 303 303 303 303 303 302 302 303 304
294 292 294 297 298 299 300 302 299 295 294 296 290 288 290 291 294 293 293 288 289 293 297 297 293 296 296 298 298 299 297 303 301 294 292 289 291 290 288 290 290 286 284 289 294 293 290 285 287 288 294 298 301 302 301 301 302 303 304 306 305 305 304 303 303 303 304 303 303 303 304 304 304 304 304 304 303 303 302 302 302 302 302 303 303 303 304
298 299 298 296 297 296 298 292 295 293 288 287 286 285 289 287 289 289 290 293 299 296 296 303 300 302 302 302 299 302 296 303 295 293 291 288 292 292 288 287 287 284 287 295 291 289 286 286 286 291 297 298 300 301 303 303 303 303 303 305 305 305 304 303 303 302 303 303 303 304 304 304 304 304 304 304 303 302 302 302 301 302 302 302 302 302 303
298 299 295 294 292 292 294 284 294 290 287 289 286 282 286 285 288 290 288 291 295 294 299 297 296 296 292 299 296 296 298 299 297 294 292 293 291 287 287 285 286 290 295 290 289 286 287 290 291 294 296 299 299 301 302 302 303 303 303 304 305 304 304 304 303 303 302 303 304 304 304 304 303 304 304 303 303 301 301 301 302 301 301 301 301 301 302
292 291 291 290 288 292 289 283 293 288 284 286 289 288 288 285 288 290 290 295 297 295 299 298 298 298 294 301 297 298 295 292 295 290 287 290 288 289 287 286 290 291 288 286 288 288 289 288 295 295 295 298 300 302 303 303 303 303 302 303 303 303 303 303 302 302 302 303 303 303 302 303 303 303 303 302 302 303 302 300 301 300 301 301 300 300 301
289 288 288 285 282 288 288 285 287 285 289 291 290 292 292 293 294 293 298 300 298 297 296 298 299 298 296 298 292 292 295 294 291 291 292 291 287 285 290 293 292 286 286 287 285 285 287 291 294 295 297 299 301 303 303 303 303 304 302 301 302 302 303 303 303 303 302 302 302 302 302 302 302 302 302 303 303 302 302 302 302 301 300 300 299 299 300
290 290 290 289 285 288 290 285 287 290 293 294 295 295 295 297 298 299 300 300 298 300 299 300 300 299 295 295 294 294 294 294 289 291 292 287 286 288 291 288 284 285 283 283 284 286 290 293 296 297 300 301 302 303 303 302 303 303 302 302 302 302 302 302 302 302 302 302 302 302 302 302 302 302 303 302 302 302 301 302 301 301 300 299 299 300 300
285 290 291 284 283 287 285 288 294 296 297 297 297 298 298 298 297 297 299 299 300 300 299 299 296 297 295 299 297 291 293 294 290 290 291 288 289 287 285 285 284 286 287 286 287 292 294 296 297 299 301 302 303 302 302 302 302 303 302 302 303 303 302 302 302 302 302 302 301 301 302 302 303 302 302 302 302 302 303 302 301 301 300 300 300 300 300
290 288 286 286 288 290 289 293 293 291 294 297 297 297 297 295 296 297 299 300 299 299 301 298 295 294 290 294 292 291 289 292 287 287 289 287 284 281 282 281 283 283 287 290 292 295 296 299 301 302 302 303 303 304 303 303 303 303 302 302 303 303 303 302 303 303 303 303 302 302 301 301 302 302 302 302 301 301 302 302 302 301 301 299 299 299 299
287 286 288 287 287 289 293 294 292 290 293 294 295 294 294 294 295 298 300 298 299 298 300 297 297 292 292 292 288 289 289 292 290 291 287 285 285 285 285 282 284 285 289 294 295 297 299 300 302 302 302 302 303 303 303 303 301 303 303 303 303 303 303 302 302 303 303 303 302 302 302 301 301 301 301 300 301 302 302 302 302 301 301 300 300 299 298
289 288 288 293 288 288 290 286 287 288 289 293 293 293 295 295 295 296 300 298 298 296 293 290 291 291 290 289 288 285 287 293 290 288 287 286 289 286 284 284 286 290 294 297 298 299 300 300 301 301 303 303 303 304 303 303 303 303 303 303 302 303 303 303 303 303 303 303 303 298 301 302 302 302 302 302 301 301 301 300 300 300 300 300 300 299 298
287 284 285 288 291 290 291 293 293 292 294 295 295 297 297 295 297 298 301 298 296 292 289 292 291 289 287 286 288 291 293 290 287 288 286 289 291 287 286 288 294 295 296 297 298 300 300 302 303 304 303 302 303 303 303 303 303 303 302 303 302 302 302 303 303 303 303 303 303 302 302 302 303 303 302 302 300 299 298 298 299 300 300 300 300 300 300
Wind_Speed
23 21 21 21 21 21 23 24 25 22 23 15 13 11 9 7 7 4 2 3 4 4 7 9 6 7 6 10 9 10 7 9 9 11 6 5 3 3 5 6 3 6 7 6 9 14 9 14 12 10 12 12 13 15 22 19 19 16 11 13 12 2 4 10 10 10 12 14 16 18 20 16 16 16 14 14 15 16 10 9 7 6 8 8 4 5 3
22 22 21 21 21 22 23 24 24 24 21 14 13 10 8 9 8 2 5 3 2 5 5 8 7 8 10 10 11 8 6 6 8 4 5 3 2 3 4 5 9 7 7 8 10 16 6 14 13 9 13 9 13 22 21 17 14 16 10 9 10 4 5 11 11 10 11 13 13 16 19 16 13 14 15 15 14 17 14 11 6 3 9 12 6 8 3
21 21 21 22 23 23 23 23 25 24 22 18 11 7 8 9 7 5 3 5 4 6 5 8 8 10 13 13 13 10 6 4 7 9 9 6 5 4 4 6 8 8 7 10 12 13 11 9 10 8 12 9 12 17 18 20 14 16 11 7 13 6 9 9 10 12 13 14 16 17 17 19 14 16 18 19 19 20 16 9 6 5 8 16 7 1 7
20 20 22 23 23 23 23 22 22 22 23 22 12 8 7 5 6 5 4 3 6 8 8 8 9 10 10 11 9 10 11 8 7 3 7 4 7 7 10 10 8 8 8 6 6 10 14 9 7 9 10 9 9 15 18 16 15 21 8 11 12 4 9 11 11 11 11 11 11 12 12 11 14 18 21 19 16 15 12 6 5 8 8 8 10 7 9
19 20 21 21 21 23 23 23 23 22 24 24 12 7 3 6 2 4 6 10 5 5 7 7 7 6 7 7 8 12 13 10 6 3 2 6 10 9 7 7 8 6 7 6 7 7 12 10 9 9 11 10 10 15 11 14 15 14 3 5 8 6 8 13 15 14 13 15 15 15 18 18 18 19 20 20 19 17 13 6 8 10 8 8 4 13 9
21 21 22 24 24 24 24 24 23 23 24 28 10 5 6 3 2 4 4 6 8 11 6 11 14 14 11 7 9 11 12 10 6 6 1 8 7 6 4 5 6 8 9 7 4 11 7 11 7 12 8 9 13 13 15 16 13 8 9 10 8 9 5 13 13 13 14 15 16 17 18 17 16 18 18 19 20 20 16 8 14 11 7 5 8 11 6
22 22 23 23 22 23 23 24 23 23 25 23 5 5 4 4 5 5 7 6 9 11 16 18 15 15 10 6 7 10 11 12 10 6 6 5 4 5 3 9 11 11 10 6 3 3 5 3 3 5 9 10 11 9 15 16 13 13 9 12 5 6 7 11 13 12 13 13 15 15 17 17 19 19 17 16 16 18 18 11 13 15 10 9 5 9 8
21 22 22 22 22 21 22 23 23 21 24 16 7 5 4 4 4 5 8 8 13 13 11 11 11 11 9 4 5 9 9 11 11 7 1 4 5 4 1 9 8 8 6 4 3 2 3 9 6 9 11 11 10 10 10 10 14 13 11 11 9 7 6 7 9 10 11 10 12 14 14 13 17 19 18 17 14 18 20 14 9 9 10 11 11 5 5
20 21 20 21 21 22 22 22 22 20 19 7 7 4 5 4 4 5 7 11 7 9 10 10 10 9 7 4 9 10 11 11 11 11 2 5 4 6 5 4 8 2 2 4 4 5 9 8 10 11 11 2 11 8 10 13 15 16 11 9 9 8 3 9 10 7 8 12 15 15 14 15 15 15 17 17 15 14 12 12 10 10 10 9 9 5 3
21 21 20 20 21 21 21 21 21 18 16 6 6 5 7 6 5 6 6 6 8 10 10 11 10 6 6 9 11 9 13 13 12 9 3 10 11 10 11 10 2 7 1 6 7 8 7 8 11 10 11 10 7 10 9 11 12 11 11 10 10 8 5 5 6 8 6 9 11 10 10 10 12 11 15 18 15 13 14 16 16 13 7 8 5 9 10
20 20 20 20 20 20 21 22 21 19 12 8 7 5 7 6 7 6 4 7 7 8 9 9 8 8 12 13 14 12 12 13 10 9 5 10 10 10 11 10 7 3 3 3 3 9 12 10 12 9 8 10 12 9 10 12 15 15 10 5 5 9 8 5 7 5 5 11 10 3 4 9 8 4 7 15 13 16 15 12 13 13 10 6 7 6 12
19 19 20 19 20 20 20 20 19 20 14 7 6 6 4 4 5 4 4 6 8 9 8 8 10 12 14 14 13 13 13 13 13 9 12 12 13 12 10 6 6 2 7 5 5 6 7 6 9 7 8 5 4 14 17 14 15 12 7 10 8 10 6 5 8 5 6 6 4 3 5 7 4 8 10 8 15 17 16 12 13 14 14 12 10 14 15
20 19 19 20 20 20 20 20 19 19 17 11 7 7 5 4 3 3 5 5 7 10 9 11 15 14 11 14 14 13 14 14 12 12 11 12 12 10 7 7 7 7 7 5 5 4 2 5 2 4 10 4 1 4 8 18 19 14 10 12 8 3 4 4 4 6 3 5 6 6 6 3 5 7 9 8 10 5 12 15 13 16 13 15 13 10 12
19 19 19 19 19 19 19 19 19 19 18 14 9 8 6 3 2 2 3 4 8 8 10 12 10 11 16 15 13 14 13 12 11 9 8 6 9 9 8 7 7 6 5 6 4 5 0 1 3 3 2 6 3 5 7 12 13 16 16 14 13 9 8 4 4 5 5 6 7 4 5 1 5 5 5 4 6 5 6 4 13 12 13 15 13 11 14
19 19 19 19 18 19 19 19 19 20 19 17 9 8 6 3 3 2 2 2 7 12 8 4 9 13 15 13 11 10 10 10 11 9 11 9 7 6 8 7 5 6 5 3 2 4 1 0 2 2 4 1 6 6 5 7 14 14 11 12 11 11 9 4 5 3 3 5 6 6 3 4 5 6 4 3 4 6 4 4 6 10 13 13 13 13 16
18 19 19 19 18 18 19 18 20 19 18 18 10 8 8 4 3 3 3 3 5 7 2 6 10 10 10 11 13 12 8 8 9 11 9 7 9 6 3 4 4 5 5 1 4 3 1 1 2 1 2 4 6 6 4 6 8 13 9 11 13 12 7 2 4 2 5 4 4 5 5 2 3 5 3 4 5 6 3 5 9 6 9 13 14 13 16
18 19 19 19 18 19 18 18 19 19 17 18 12 10 8 4 3 4 4 3 3 8 12 11 8 7 9 8 9 6 7 7 9 7 6 8 9 12 7 4 3 1 2 3 4 2 0 1 3 3 2 2 5 3 6 6 6 8 8 8 12 10 6 4 6 5 4 5 4 5 1 0 2 2 4 4 5 4 5 10 8 6 5 7 13 12 17
18 17 19 19 18 18 18 18 18 18 17 17 12 9 9 8 2 4 3 3 3 7 4 2 3 8 7 7 9 10 10 8 8 8 8 10 8 7 10 7 4 3 2 1 3 2 2 0 1 1 1 1 5 6 5 9 8 8 12 9 8 7 5 6 7 6 6 5 3 2 1 0 3 2 2 3 4 6 8 10 3 4 6 9 4 8 17
18 18 18 18 18 18 18 18 18 18 18 18 13 10 7 8 8 4 5 5 3 8 8 7 9 12 12 9 10 10 9 11 10 8 7 7 5 13 14 8 5 4 3 2 3 2 2 3 4 1 1 1 2 2 5 8 7 8 12 11 10 9 5 6 6 6 6 6 5 4 2 4 5 3 4 2 5 7 8 2 6 6 7 10 13 9 16
18 18 19 19 19 18 18 18 18 18 18 18 13 10 11 11 7 6 6 7 4 8 15 13 9 12 7 7 8 7 7 8 7 7 7 8 11 15 9 1 4 1 6 5 5 6 4 0 3 2 1 1 2 5 3 5 7 9 10 11 6 7 4 7 7 4 3 3 5 5 5 2 5 7 4 2 1 1 3 6 5 5 7 7 14 9 14
18 18 19 19 19 18 18 18 18 17 18 17 14 10 10 7 7 6 3 6 6 9 10 3 3 8 10 12 13 13 12 11 8 8 8 9 9 8 4 4 6 4 3 4 4 3 2 4 3 2 2 3 2 3 3 3 9 7 10 10 9 9 7 5 4 3 4 4 6 2 2 8 6 7 2 3 0 2 4 6 3 5 5 10 1 7 13
17 18 18 19 20 19 18 18 18 18 17 17 16 9 9 8 9 8 6 4 7 7 9 12 13 17 19 17 15 14 15 16 14 10 9 8 8 6 7 8 8 4 2 4 3 1 2 3 2 0 1 0 4 3 6 1 0 4 2 6 6 8 4 4 2 6 3 1 3 6 7 9 6 5 7 7 4 2 2 3 5 5 8 8 10 11 11
17 18 18 19 19 19 19 18 18 18 18 17 14 8 10 11 9 9 8 8 8 11 13 15 14 15 15 18 18 16 15 13 12 10 9 7 6 7 5 5 5 4 2 1 4 1 5 6 3 4 2 1 2 3 5 4 3 7 2 4 3 6 5 0 4 6 9 7 6 3 6 7 7 4 5 7 6 4 4 6 5 6 7 6 7 8 11
17 18 18 19 19 20 19 18 18 18 18 17 13 10 10 10 11 10 8 7 6 10 11 6 6 4 7 9 2 12 11 12 13 10 8 7 6 4 1 1 8 4 4 7 3 4 3 3 3 1 2 4 7 4 1 3 4 2 3 1 3 4 1 3 4 6 2 3 3 5 5 5 5 4 5 4 2 4 3 3 4 6 5 6 4 7 8
18 19 19 19 19 20 19 18 18 18 17 18 15 11 10 10 8 6 7 4 3 2 5 9 10 13 11 5 2 4 10 8 8 9 9 9 10 8 8 10 9 7 10 11 7 4 2 2 1 1 2 1 2 3 5 2 2 8 1 3 1 1 5 5 8 4 2 4 5 6 3 1 1 3 4 5 4 3 4 3 3 4 6 5 6 4 5
20 20 19 19 19 20 19 19 19 19 18 19 17 11 9 10 9 9 7 7 7 5 4 7 9 13 13 11 8 8 1 8 7 9 9 9 10 9 10 9 9 8 8 8 7 4 3 3 1 1 3 1 2 2 2 2 7 5 4 3 3 3 7 2 9 1 5 9 7 5 2 2 3 5 6 5 4 4 4 5 5 5 6 7 6 5 4
21 21 20 19 20 20 20 19 19 19 20 20 14 11 11 10 9 8 7 6 8 4 3 6 9 14 13 18 16 9 5 5 6 7 8 8 8 7 7 8 9 8 7 6 4 4 3 3 3 3 4 2 2 4 2 4 4 3 2 6 8 1 4 7 3 6 1 1 1 5 2 2 4 1 4 5 5 4 5 4 5 4 6 6 8 8 8
19 21 20 20 20 20 20 20 19 20 20 21 16 12 11 11 9 7 5 5 5 5 8 10 11 14 17 17 10 5 4 5 6 6 5 5 5 6 6 6 6 6 6 5 4 3 3 3 4 1 3 3 4 1 3 5 4 1 3 2 4 5 1 2 2 1 2 3 2 4 3 2 3 5 3 4 4 5 5 5 3 4 5 7 8 9 8
20 21 21 20 20 20 20 20 20 19 21 19 12 13 11 11 10 5 3 4 4 7 7 10 12 10 5 6 9 6 5 6 5 5 5 5 6 4 5 6 6 5 6 4 3 3 3 4 3 4 3 3 4 2 1 1 1 2 4 5 2 2 2 6 5 2 5 4 1 2 1 2 2 2 3 3 3 4 5 6 5 4 6 5 7 7 7
22 22 22 21 21 21 20 20 20 19 19 12 10 8 5 5 1 3 1 1 3 4 4 6 6 3 8 8 7 4 6 8 7 6 5 4 4 5 5 4 4 4 5 3 2 3 3 3 3 1 3 1 3 3 1 1 1 4 4 6 5 1 4 7 2 1 2 3 3 3 2 3 3 2 2 4 3 3 7 6 4 6 5 6 7 7 7
22 22 23 23 22 21 21 20 18 18 17 9 7 3 3 2 4 4 4 2 3 5 3 3 8 7 7 7 8 8 5 9 9 7 7 6 7 8 5 4 4 4 3 3 2 3 2 2 2 3 2 3 2 2 3 6 2 2 4 5 4 3 4 5 1 3 2 2 1 3 5 2 1 3 5 3 5 3 7 7 10 10 5 7 7 7 7
22 23 23 22 21 20 20 20 19 16 10 9 8 6 3 4 3 4 6 6 6 6 3 5 5 3 3 4 4 5 8 6 5 4 5 6 5 2 1 2 3 2 1 2 2 3 1 1 2 3 3 1 2 3 3 1 1 1 5 4 4 4 3 3 2 4 6 7 6 5 3 4 3 2 4 10 8 5 6 6 7 8 5 5 7 6 6
21 23 24 23 23 23 22 20 21 14 10 13 19 24 27 28 19 18 12 8 6 4 3 3 4 3 3 3 4 8 8 4 5 6 5 4 4 3 1 2 1 3 4 1 1 1 1 1 1 2 0 1 1 1 2 1 2 1 3 5 6 5 3 3 4 5 1 3 5 3 3 2 6 7 6 5 5 6 5 5 6 6 7 8 7 7 7
22 23 24 25 25 24 23 22 21 20 17 11 9 9 8 14 14 10 8 6 5 5 3 3 3 5 6 6 6 4 6 6 7 7 2 4 2 1 2 3 2 3 4 2 1 3 4 3 2 1 3 2 3 1 2 2 4 4 4 3 4 4 3 3 4 4 5 5 1 4 2 2 5 6 5 5 5 5 6 5 6 7 8 8 8 8 8
23 24 24 26 26 24 25 24 13 7 6 6 9 1 5 4 3 6 7 5 4 3 4 4 3 6 7 5 4 3 2 6 2 3 1 3 2 4 3 3 2 2 3 1 3 3 3 3 5 2 1 1 1 3 2 5 5 5 4 5 2 1 5 4 4 4 4 2 1 4 2 2 3 7 6 5 4 4 5 6 6 6 6 7 7 9 8
24 25 25 25 27 23 13 10 7 5 6 6 0 4 3 4 5 6 7 7 6 5 3 3 3 7 7 7 4 2 2 6 3 4 1 1 5 5 3 1 2 2 2 1 3 3 1 3 1 2 2 3 3 3 4 4 4 5 5 4 5 5 3 3 5 5 6 5 5 2 1 2 6 8 5 5 4 4 4 5 6 6 6 7 7 6 6
26 25 26 25 14 6 6 3 4 6 2 4 4 4 1 5 5 5 4 5 6 6 6 3 5 7 9 6 2 1 5 4 2 2 3 1 0 0 3 3 0 1 1 2 1 2 2 0 3 1 4 3 3 3 4 6 5 5 5 4 2 3 3 4 8 6 2 2 2 2 9 3 6 5 4 4 4 3 4 4 5 7 7 7 5 5 6
26 27 13 8 6 4 3 2 2 2 5 4 2 3 4 4 3 3 2 3 5 6 4 5 6 7 7 8 4 5 6 4 4 2 2 2 1 2 0 1 1 1 1 1 2 1 2 2 2 2 3 6 6 6 5 4 5 5 4 4 5 3 3 4 5 5 4 5 2 3 4 5 5 4 3 4 2 2 3 4 5 5 5 5 6 6 7
22 10 7 6 5 2 2 3 1 3 5 3 4 2 3 3 2 2 3 3 2 5 4 6 7 8 8 5 4 4 3 3 5 6 1 1 2 2 1 1 2 1 2 3 1 0 3 3 1 2 5 6 5 4 4 7 5 5 4 3 4 5 5 4 6 7 7 5 7 6 6 7 3 3 3 4 5 6 4 4 5 5 5 5 5 6 7
5 6 4 4 2 4 7 1 3 6 4 3 3 2 2 3 3 3 3 3 3 4 3 4 6 6 4 6 7 1 3 5 4 4 3 1 1 2 1 2 2 2 3 2 3 2 3 2 3 1 6 5 6 4 4 5 7 5 4 3 4 5 4 3 3 2 2 4 4 7 7 4 7 4 3 4 5 3 3 5 5 4 4 5 5 7 9
7 6 6 4 8 7 6 10 8 5 3 3 2 2 2 3 3 2 2 4 3 3 4 6 4 4 1 5 6 4 4 2 3 3 3 1 1 3 2 2 1 2 1 2 1 2 3 3 2 3 3 6 5 4 2 6 7 5 5 5 5 5 4 3 2 3 5 5 8 8 7 7 6 4 4 4 4 2 2 4 3 3 5 6 7 8 8
8 7 7 10 10 10 9 6 3 2 2 2 2 3 3 2 2 3 3 4 3 3 6 5 7 5 0 3 5 5 1 4 3 2 3 0 1 2 1 1 0 2 1 2 1 3 1 2 2 3 5 5 4 4 1 5 6 5 6 5 5 4 3 3 2 4 6 7 7 7 6 6 6 5 4 3 4 4 5 4 4 4 4 5 6 7 8
21 17 10 7 5 3 2 3 3 1 2 3 2 2 3 3 4 5 3 3 2 5 1 1 4 3 3 3 5 3 3 2 3 1 3 1 0 1 2 0 1 1 1 1 3 0 2 2 3 5 5 5 2 3 1 5 8 6 6 4 4 3 3 3 6 8 8 7 6 5 4 4 6 6 5 5 5 6 5 5 4 4 5 6 6 5 5
10 8 5 3 2 3 2 3 3 2 2 2 3 4 3 6 5 4 2 3 4 6 3 3 1 4 1 5 5 0 3 4 1 2 1 0 1 1 0 2 0 2 1 3 4 2 2 2 3 7 6 3 1 2 4 5 5 6 6 5 4 3 3 4 3 4 6 5 5 4 4 5 4 5 6 7 6 6 5 6 6 5 6 6 7 6 5
5 2 1 2 2 2 2 2 3 3 5 5 4 6 4 6 4 3 4 3 5 4 4 4 4 3 5 1 2 2 1 1 3 2 0 0 2 1 1 2 2 1 3 2 1 1 0 2 6 7 7 3 4 3 5 4 4 4 5 5 4 3 2 2 3 3 6 5 6 5 5 4 4 5 7 8 6 6 7 7 7 6 6 5 6 7 5
3 2 2 3 3 2 3 3 2 4 4 3 5 8 7 6 3 2 2 3 6 6 5 4 4 4 6 1 3 2 1 2 3 1 0 1 1 0 1 1 1 2 3 2 2 2 3 5 6 6 6 3 3 5 4 3 4 4 3 4 4 2 2 3 3 3 5 5 5 5 5 4 5 4 5 6 7 6 7 7 7 7 7 7 7 7 6
3 1 2 2 4 3 3 5 4 4 4 6 5 5 6 7 3 2 3 2 5 2 4 5 6 4 4 2 2 2 3 1 3 1 1 2 0 1 0 2 1 1 2 1 1 1 5 7 7 6 4 2 3 3 3 4 5 4 2 3 4 4 3 2 1 3 4 5 5 5 4 5 6 5 4 5 7 7 7 8 8 8 8 9 8 7 7
3 2 2 3 3 2 7 6 6 8 7 6 3 6 5 2 2 3 3 4 5 5 6 4 5 4 6 4 4 5 4 2 1 1 0 1 1 1 0 1 1 0 0 3 2 4 5 7 7 6 3 1 2 3 3 5 5 3 3 3 5 5 3 2 3 3 3 4 4 4 5 4 4 5 5 5 6 6 6 7 7 8 9 9 9 10 9
2 2 2 2 2 2 4 5 6 9 5 1 8 7 3 3 3 2 4 4 5 5 5 5 2 2 3 2 4 3 4 2 2 2 1 2 0 1 1 2 2 1 2 3 4 5 6 6 6 4 3 2 2 1 3 3 5 3 4 3 3 4 3 2 2 2 3 3 4 4 5 4 3 5 5 4 6 7 6 7 7 7 8 9 9 9 10
2 3 3 4 5 5 8 7 7 5 7 6 3 2 5 3 2 5 6 6 6 6 6 5 3 3 3 2 3 2 4 2 2 1 2 2 2 2 2 3 2 3 1 2 4 5 4 5 6 4 4 3 2 2 2 5 5 3 4 3 4 4 3 3 3 3 3 3 3 4 4 4 3 5 7 6 4 5 7 8 7 7 7 8 9 10 10
2 2 4 6 7 6 5 5 4 4 4 3 2 3 3 4 4 3 5 5 5 5 2 3 2 3 3 3 2 3 2 2 3 4 3 2 1 3 3 3 4 3 3 5 5 2 5 6 5 4 3 3 2 2 4 5 4 4 4 3 4 4 3 3 4 4 4 3 4 2 3 7 7 7 7 7 6 5 7 9 8 7 8 8 8 9 10
2 4 5 5 9 10 8 5 4 5 6 5 4 3 4 3 2 3 3 5 5 3 2 3 2 3 2 3 3 3 2 2 3 1 3 4 2 3 3 2 1 3 4 3 5 3 5 5 4 4 4 3 3 3 4 3 2 5 5 3 3 4 4 4 4 5 4 4 3 3 5 7 6 6 6 8 8 6 6 6 6 7 7 7 7 8 8
Wind_Direction
345 343 345 348 349 349 349 350 349 349 346 348 347 326 316 336 334 103 131 157 274 276 279 267 256 254 245 292 314 334 312 310 321 310 321 310 266 270 235 246 277 244 238 302 293 288 222 189 207 171 177 177 198 171 191 187 184 203 199 196 172 104 183 152 193 199 200 194 191 203 228 211 205 212 230 209 202 206 217 205 217 199 202 214 175 220 95
347 349 350 350 349 348 350 349 349 348 351 344 332 324 320 316 309 302 165 182 226 287 293 326 326 319 320 324 323 329 317 311 312 296 295 288 291 241 274 275 227 281 288 290 284 285 232 194 209 171 180 165 212 176 172 181 185 195 184 199 131 168 172 176 173 182 185 187 197 196 217 222 204 200 215 225 209 195 226 225 216 227 211 235 196 207 151
348 351 352 350 349 351 351 348 347 348 343 343 331 313 316 296 279 262 195 176 221 261 297 308 306 313 318 324 321 329 322 318 291 295 285 278 252 273 268 271 311 289 280 281 261 266 243 172 211 180 179 151 203 171 174 179 181 209 180 210 140 204 159 177 181 182 181 187 192 191 195 209 208 204 203 226 225 196 196 213 191 220 209 224 224 101 113
347 349 353 352 351 351 350 347 346 346 341 337 342 323 312 340 323 339 330 193 255 255 257 268 286 300 321 320 310 320 320 328 337 323 306 323 316 300 282 282 276 281 275 284 250 253 225 204 173 197 169 142 204 161 182 186 187 199 206 184 155 202 177 191 194 198 197 201 201 180 189 194 208 195 214 211 229 225 220 190 206 209 204 238 238 148 147
345 350 352 351 351 351 350 348 347 346 340 338 334 304 264 299 311 352 320 322 279 296 290 284 284 293 319 303 325 324 331 332 355 100 298 359 341 318 293 288 312 312 311 298 279 242 183 193 188 179 160 178 154 156 176 204 214 197 268 197 168 199 181 211 210 202 205 197 202 177 192 203 211 205 201 202 200 230 235 200 206 215 210 215 213 121 158
344 347 348 350 348 349 349 348 349 348 340 335 332 318 355 322 18 320 345 307 309 317 315 331 317 312 315 300 313 315 326 345 341 336 332 327 331 331 326 316 312 294 283 280 291 322 261 181 181 176 152 159 136 155 191 201 216 201 216 174 196 187 213 195 213 219 220 186 202 197 185 206 207 224 218 205 198 214 237 208 204 211 235 231 132 128 141
344 344 348 347 346 348 348 348 351 350 342 331 315 346 354 331 326 302 3 315 306 305 300 302 300 306 313 302 298 315 332 333 347 348 319 331 325 346 312 330 336 323 320 314 254 310 336 220 156 104 165 178 149 170 176 202 180 189 195 180 190 180 212 204 213 218 226 193 201 198 189 192 203 215 219 207 211 216 229 221 200 215 221 241 222 194 179
342 343 345 345 346 349 349 350 353 352 344 329 358 38 329 6 341 326 334 294 292 289 290 298 301 302 312 301 320 318 331 328 333 336 111 326 328 24 300 284 315 303 245 281 271 360 342 341 341 4 332 162 169 166 189 165 173 184 192 204 147 228 180 238 208 215 227 253 246 196 189 202 211 199 209 211 207 214 219 222 223 228 221 219 238 229 235
341 342 344 345 347 347 350 352 354 352 349 358 1 355 24 318 278 294 311 310 300 310 312 310 315 310 317 305 328 322 334 332 333 321 284 208 255 205 250 298 349 19 8 342 323 2 358 327 301 327 322 212 179 178 191 187 160 190 194 197 148 199 250 217 222 210 211 234 241 191 192 196 209 215 213 214 207 214 209 217 217 224 214 221 232 205 233
342 343 342 345 346 348 349 350 354 355 349 352 344 336 345 316 314 320 303 294 301 303 302 301 297 305 350 333 333 331 329 321 329 325 289 198 232 313 329 333 51 104 21 295 315 337 305 272 295 315 302 280 216 188 192 201 164 188 183 181 175 178 240 236 200 205 205 219 244 238 214 203 204 209 206 212 215 209 208 211 212 217 221 218 203 214 106
341 343 342 344 346 346 348 348 351 355 354 355 343 325 335 350 329 323 303 297 301 315 324 310 310 339 332 333 330 326 319 321 326 327 319 318 319 322 318 326 6 352 19 359 211 227 243 265 288 294 295 260 193 190 190 185 178 203 169 125 206 176 227 222 174 214 206 209 226 218 222 203 212 204 223 208 219 212 216 211 201 191 210 234 202 127 120
336 341 341 343 342 343 345 348 348 350 352 337 325 311 323 317 305 293 314 314 305 318 315 309 316 324 321 327 322 318 315 319 317 311 300 305 308 314 310 332 2 331 9 303 276 263 262 254 268 271 274 263 158 176 177 182 170 233 184 161 212 187 201 255 169 205 201 198 206 160 223 222 37 1 348 280 227 213 218 225 211 200 200 237 214 142 155
334 338 340 342 342 342 344 347 347 346 346 340 328 320 321 318 300 306 297 300 296 322 320 310 311 306 326 326 321 316 317 308 302 298 285 290 297 304 310 335 316 356 345 333 297 286 334 102 114 326 347 300 244 261 221 174 168 190 195 181 230 193 214 270 200 197 177 166 180 209 213 42 345 349 324 319 341 297 203 219 217 207 201 207 229 179 151
331 335 338 338 338 339 340 343 344 343 341 342 327 314 299 299 302 317 311 316 300 301 311 300 305 330 329 324 320 312 311 309 312 297 292 284 289 294 307 295 331 331 331 329 319 303 148 152 118 108 19 334 260 221 244 187 164 190 198 181 200 182 223 243 206 208 213 182 186 210 65 284 355 324 278 236 222 253 245 207 207 200 204 200 210 205 137
330 333 334 335 336 337 339 340 342 341 340 342 325 311 304 288 192 264 267 280 293 306 295 302 336 320 318 315 319 318 320 327 322 323 309 283 270 301 292 301 322 334 338 316 360 318 11 80 122 111 113 237 167 191 195 191 165 209 211 186 201 184 223 181 231 184 254 188 197 209 193 233 223 229 276 263 293 276 268 336 297 212 200 192 193 206 128
328 330 330 332 333 335 338 338 340 339 341 343 329 326 313 295 211 204 265 266 311 305 4 347 320 307 310 312 311 307 306 308 318 318 333 348 330 318 346 355 358 335 280 307 355 352 293 230 87 83 130 215 161 152 192 183 174 183 197 182 201 196 211 260 277 231 196 195 223 222 232 210 327 171 184 237 286 266 221 251 256 220 219 191 194 178 133
327 328 329 329 331 334 337 334 335 338 338 344 336 325 313 317 197 213 242 251 211 256 280 295 298 290 301 306 318 318 340 325 328 334 324 327 328 331 346 349 25 211 254 1 8 330 268 244 46 305 54 157 154 176 155 179 186 176 189 231 202 189 186 217 229 240 224 224 211 228 278 162 229 145 207 196 226 228 189 215 229 178 241 251 191 170 136
325 327 327 328 330 331 334 334 334 336 337 340 334 324 304 304 145 211 234 224 279 282 270 234 285 312 305 311 306 306 306 302 321 324 301 314 331 18 310 327 21 284 343 350 12 346 293 176 164 255 296 294 324 183 176 170 190 186 180 201 191 186 195 211 224 207 219 234 235 240 149 21 127 118 333 227 198 203 203 211 183 350 221 214 213 177 139
323 324 324 325 328 330 331 332 334 334 337 338 335 316 308 324 314 258 285 283 274 279 269 307 301 279 277 280 270 280 279 286 294 299 311 316 357 334 321 310 25 353 312 74 347 314 271 164 121 36 291 185 228 186 175 173 185 190 178 188 196 195 205 193 215 225 215 205 226 238 85 145 144 151 153 213 198 201 206 79 318 294 320 213 196 195 147
322 322 323 323 326 328 330 331 332 333 334 338 336 321 309 301 279 285 294 304 290 272 287 288 271 271 266 273 290 292 304 296 280 284 306 311 329 333 333 94 44 21 281 216 205 186 237 76 86 74 299 331 303 337 288 211 189 193 182 188 199 177 205 201 209 224 243 212 231 222 227 166 191 138 134 126 232 91 341 307 325 327 328 242 187 203 141
321 321 321 321 322 326 328 329 331 331 332 335 336 320 312 309 315 317 276 283 291 300 296 259 272 281 285 278 270 270 271 269 284 307 318 314 330 331 351 354 336 9 7 359 344 11 360 16 35 28 17 298 305 249 224 210 197 178 192 182 214 166 198 201 201 215 227 202 222 228 69 137 171 163 152 142 221 12 334 309 297 353 14 12 336 171 143
320 319 319 319 320 323 325 327 329 327 329 332 332 316 300 312 316 304 309 290 272 252 261 286 293 280 271 263 257 250 251 253 263 279 297 304 313 306 292 328 335 13 12 338 12 353 31 354 245 260 9 103 262 277 275 288 340 313 238 156 214 173 218 33 309 173 229 336 70 110 138 124 122 103 102 119 127 31 358 2 18 18 26 25 38 44 53
320 319 318 318 318 320 323 325 325 324 326 330 329 319 306 306 304 316 309 282 270 268 270 274 267 263 263 258 245 238 234 245 259 260 253 272 296 299 347 8 340 337 322 317 30 351 331 324 10 325 275 207 296 307 275 305 137 240 178 270 30 58 48 296 220 81 94 79 82 84 106 123 118 125 109 127 106 55 8 16 49 28 60 52 66 97 131
319 318 316 316 316 317 320 322 322 322 323 324 325 312 306 302 298 290 289 287 293 307 301 267 276 287 286 321 205 205 218 228 233 236 239 238 268 291 201 56 357 349 330 339 333 318 277 302 11 325 333 317 316 280 32 308 318 316 115 197 57 340 320 238 252 135 173 95 145 121 107 107 124 113 96 101 110 72 30 57 48 55 70 86 78 120 135
319 317 315 315 315 315 317 320 319 318 320 319 320 304 294 285 279 310 320 316 308 309 296 306 293 267 282 262 173 195 200 220 209 217 220 222 236 261 288 326 338 320 319 319 305 301 242 283 133 279 322 119 294 307 53 310 198 344 165 145 77 247 338 278 243 170 251 101 45 14 17 261 175 130 141 132 121 129 98 68 72 72 65 69 101 101 117
318 316 314 314 313 313 315 316 317 317 317 318 316 306 299 288 291 285 271 267 259 253 279 302 296 308 314 338 338 336 122 196 213 205 212 218 229 247 283 313 317 319 297 286 292 286 308 296 294 149 282 59 319 324 337 307 292 305 9 39 52 310 333 26 331 112 76 103 115 158 141 284 132 67 54 90 103 123 121 104 104 110 107 103 121 111 109
315 315 312 312 312 312 314 314 315 315 316 317 314 298 285 280 275 265 270 294 313 286 234 274 302 306 331 325 304 279 221 210 209 220 212 221 237 245 252 279 299 304 301 314 305 279 265 273 302 4 310 357 354 297 325 323 300 358 42 360 343 64 325 326 42 72 340 66 76 307 216 160 117 104 88 78 89 116 117 121 124 112 106 113 114 132 164
314 312 312 309 310 310 311 312 312 315 316 317 309 292 276 267 255 249 241 246 265 296 305 296 301 302 316 283 273 262 206 206 214 216 227 224 241 250 269 271 267 278 310 337 332 337 324 323 357 349 276 31 324 8 1 272 294 155 64 85 309 12 31 33 65 26 124 177 110 42 63 28 11 150 116 100 95 101 111 122 116 114 116 118 116 111 120
313 310 308 307 306 309 309 311 312 314 317 317 306 295 274 246 242 225 208 218 263 291 292 289 283 276 277 335 310 256 197 203 214 236 223 232 238 238 236 251 270 292 297 304 308 302 334 333 335 324 3 24 295 290 308 320 231 55 50 291 215 331 45 112 159 163 95 74 94 103 241 118 205 94 88 115 95 103 106 92 116 109 114 126 124 132 141
310 309 306 305 306 306 308 309 310 311 316 316 310 295 282 122 203 151 104 354 299 319 298 322 310 287 330 314 289 283 200 190 210 216 223 225 241 251 267 255 265 287 285 260 284 328 4 299 284 342 68 109 286 309 228 211 72 71 4 320 8 155 89 90 92 319 60 22 55 42 80 126 100 115 132 100 79 77 77 71 92 126 112 119 135 132 139
308 306 304 302 304 304 304 306 306 308 310 301 300 290 273 214 117 75 36 267 322 306 293 268 268 299 300 255 260 277 259 194 202 208 225 233 244 249 232 233 240 255 310 339 348 13 304 327 347 344 321 61 349 273 6 15 16 276 22 4 36 11 38 60 64 120 101 108 48 131 142 142 101 100 118 128 87 75 81 69 54 45 67 127 123 145 144
307 303 302 302 301 303 301 299 299 300 291 276 249 250 356 4 359 328 335 312 295 266 254 286 294 264 271 276 254 240 257 230 202 206 222 226 238 188 278 278 338 4 21 309 331 276 247 67 280 297 327 107 200 292 81 257 72 71 348 338 33 31 46 90 70 62 55 50 48 23 41 83 108 143 53 49 63 55 85 84 94 106 80 108 98 112 128
304 302 301 302 302 299 298 295 290 289 280 281 288 288 284 281 270 266 272 262 234 238 259 272 265 290 270 263 192 219 227 211 228 213 214 193 216 143 246 356 314 246 131 231 230 279 313 279 247 264 298 152 246 89 92 5 222 207 349 8 360 11 42 69 85 76 134 67 51 95 245 115 69 79 91 100 81 83 96 106 123 118 124 118 126 115 122
303 301 301 300 299 298 294 292 289 282 272 264 264 246 243 228 242 236 217 210 263 263 245 261 262 269 271 307 288 161 225 247 202 220 196 178 97 178 204 221 218 265 158 232 256 258 243 239 273 79 148 190 216 350 73 130 130 99 51 39 9 22 10 57 45 55 37 65 81 45 113 84 119 110 106 97 91 79 74 104 122 120 118 130 119 109 104
303 300 299 298 297 296 293 287 282 251 237 235 234 155 60 43 43 179 201 221 264 226 215 228 237 282 291 276 232 102 239 281 31 62 313 139 174 241 193 249 186 284 90 272 260 253 297 51 36 272 167 143 56 54 48 50 65 82 87 55 36 106 36 56 61 44 62 355 30 106 116 251 115 102 97 105 121 124 113 113 117 121 114 109 126 117 122
301 300 298 298 297 293 288 263 227 236 221 241 358 110 165 163 183 197 219 230 253 299 294 282 283 283 291 301 355 52 336 270 236 217 136 125 194 230 264 249 235 86 331 253 311 328 345 61 240 311 85 85 49 11 45 48 59 71 74 75 51 52 45 22 37 65 32 20 27 350 241 178 133 113 99 94 103 123 118 125 116 128 131 120 111 89 106
300 298 299 296 287 253 245 249 198 219 337 10 339 338 256 223 208 218 207 224 223 231 266 296 287 278 295 327 307 22 344 320 14 269 132 286 51 71 284 238 163 59 275 239 312 356 55 71 275 345 50 44 81 98 77 50 52 62 86 96 87 62 69 35 16 344 117 167 221 53 25 29 92 58 78 68 65 93 126 141 140 140 143 140 131 116 99
299 297 294 281 257 252 261 187 92 14 297 240 227 211 185 197 226 196 192 235 185 181 221 233 254 271 278 276 292 28 312 333 316 312 98 10 263 190 105 345 103 194 269 15 85 349 319 270 249 107 83 85 97 62 73 87 77 81 81 89 98 91 70 42 18 356 18 14 62 52 115 88 64 57 88 71 46 73 74 95 87 106 119 134 157 150 124
294 279 253 236 250 290 3 34 268 192 260 244 225 277 223 192 235 227 199 192 164 217 215 228 252 258 271 281 294 87 351 325 303 286 92 86 332 7 321 289 106 256 258 200 137 272 269 222 292 86 104 121 101 88 104 92 80 77 79 69 86 104 93 39 347 350 21 43 25 27 27 5 8 120 91 116 72 48 41 89 86 94 127 144 145 140 139
316 315 325 306 305 13 314 71 141 292 262 264 204 236 262 213 226 248 193 215 210 226 194 232 232 252 282 308 318 8 58 319 335 351 346 80 54 331 25 307 74 300 306 51 80 234 290 4 9 4 69 58 87 105 112 106 114 114 88 74 82 80 64 63 38 352 44 26 27 31 9 25 37 51 76 87 83 67 66 64 67 70 101 116 128 155 155
349 332 313 326 343 324 316 314 304 265 246 239 234 213 259 253 216 264 270 242 250 238 190 256 230 241 251 268 254 281 116 265 316 330 306 332 49 286 291 25 25 292 324 45 70 294 296 44 342 33 47 50 73 109 183 130 116 100 117 125 116 93 83 41 33 23 11 35 39 43 35 31 63 68 86 96 109 112 69 70 90 97 113 111 144 146 133
327 302 294 299 293 284 283 261 239 242 234 247 253 237 222 255 228 215 234 262 243 243 182 210 231 245 289 324 339 330 16 57 300 294 290 344 75 293 291 167 195 288 19 63 306 262 353 53 340 46 69 65 73 104 123 94 96 110 117 126 122 129 84 76 79 40 34 39 47 59 49 55 60 71 66 80 107 120 121 131 139 141 148 146 129 128 129
289 274 261 275 276 274 232 257 191 221 220 198 219 269 225 230 222 234 216 228 293 286 103 172 291 307 257 252 242 215 323 14 309 269 275 18 79 228 319 25 250 247 15 324 266 163 48 30 14 43 40 53 82 118 106 89 109 110 110 118 114 84 84 65 47 59 54 53 60 73 77 73 69 72 79 81 98 116 116 121 131 130 113 119 89 60 86
278 263 218 220 264 263 227 246 188 194 242 220 196 233 216 235 218 200 241 246 217 241 255 310 5 293 264 139 287 189 192 197 221 261 288 96 246 138 252 240 72 69 276 249 257 80 16 63 35 37 24 62 66 122 117 117 130 119 126 124 120 124 89 56 65 90 91 88 88 83 71 77 93 103 103 105 104 110 120 127 125 118 109 103 91 89 65
280 272 242 262 243 232 157 282 194 221 222 218 222 233 218 229 232 241 243 1 327 342 41 268 277 272 287 69 255 241 280 276 134 251 94 272 299 348 309 16 23 283 274 262 31 85 88 43 38 43 10 47 88 109 105 112 121 131 129 124 135 122 83 79 85 85 88 86 90 89 88 83 85 87 95 103 107 112 120 121 120 122 125 117 112 104 98
292 320 297 255 266 250 226 238 182 215 230 234 228 232 238 251 270 242 300 319 296 310 298 343 311 281 275 304 292 309 207 261 267 250 30 260 226 240 22 324 280 301 315 344 61 340 61 50 41 26 18 18 95 115 119 132 95 99 129 144 136 103 81 75 91 94 89 90 90 93 95 98 91 87 93 103 114 117 117 121 131 130 134 135 137 133 120
262 245 247 285 287 260 218 250 226 232 250 234 231 270 274 266 285 23 44 285 270 333 301 265 271 298 295 275 258 238 247 220 266 82 248 251 61 74 63 298 274 240 138 206 187 308 59 64 45 32 11 45 104 123 135 116 107 119 147 131 125 116 98 93 123 130 111 105 104 100 104 104 98 95 103 105 101 115 123 116 115 129 136 135 129 120 108
300 281 269 251 238 231 221 231 252 261 240 265 254 203 252 291 189 187 77 335 326 308 285 314 289 230 223 192 228 275 292 250 230 196 336 344 106 283 98 271 257 242 228 279 357 46 66 74 50 35 41 35 108 139 123 100 95 141 134 117 147 153 136 136 119 131 127 105 101 97 96 101 102 104 96 106 114 110 117 117 121 123 131 137 133 131 127
324 311 281 254 262 294 298 304 274 254 276 149 264 271 245 232 196 85 29 326 318 311 328 309 322 351 295 318 270 253 236 180 192 189 140 241 162 169 213 246 267 253 217 272 42 52 62 79 73 61 52 72 109 151 123 124 136 158 125 134 154 161 143 138 108 144 152 132 120 114 99 86 95 109 106 115 119 116 114 124 128 125 136 146 141 136 143
258 233 240 255 278 265 259 259 262 281 287 281 305 1 62 28 354 55 4 326 336 318 312 290 278 279 287 274 249 237 275 234 263 185 168 212 180 218 193 244 228 247 219 86 63 68 43 70 101 87 65 78 98 141 139 102 100 111 117 147 146 150 150 131 140 166 158 110 105 89 110 133 131 122 120 115 110 126 127 117 122 131 133 140 137 137 143
225 252 257 258 261 281 316 311 313 307 327 319 6 340 333 37 17 340 10 319 315 314 303 297 309 261 249 229 253 240 222 256 236 240 240 207 180 220 203 222 236 255 60 56 39 355 70 54 39 70 107 110 111 81 67 98 146 132 131 124 126 144 150 155 151 140 133 106 98 116 98 81 89 103 112 121 132 130 117 113 118 133 139 141 149 144 144
251 241 255 246 238 245 255 273 278 282 307 339 346 10 339 359 10 283 335 307 311 307 326 318 284 262 247 249 242 267 354 340 275 240 233 241 203 190 202 242 5 18 42 60 70 34 62 71 59 43 70 102 118 121 105 96 106 96 102 106 133 129 142 148 144 136 144 145 156 136 107 109 113 119 128 122 118 117 115 115 123 129 138 141 145 146 143